When you browse on this site, cookies collect data to enhance your experience and personalize the content and advertising you see.
Visit our Privacy Policy to learn more. By continuing to use the site, you agree to this use of cookies and data.
  • In Czech Republic
  • List of Countries
  • For 7 days
  • Water Temperature
  • Satellite Maps
  • Weather Map
  • Weather Widgets
  • user-avatar
    Login

    Hourly Weather Satif

    Today, 21 January, Monday

    Time Temperature Precipitation Wind Pressure Humidity
    00:00 +2°C° 0 mm 3 mps 664 mmHg 94%
    01:00 +3°C° 0 mm 2 mps 664 mmHg 95%
    02:00 +3°C° 0 mm 2 mps 664 mmHg 95%
    03:00 +3°C° 0 mm 2 mps 664 mmHg 95%
    04:00 +3°C° 0.1 mm 2 mps 664 mmHg 95%
    05:00 +3°C° 0.1 mm 2 mps 664 mmHg 95%
    06:00 +2°C° 0 mm 3 mps 664 mmHg 94%
    07:00 +3°C° 0 mm 4 mps 665 mmHg 89%
    08:00 +4°C° 0 mm 4 mps 665 mmHg 84%
    09:00 +3°C° 0 mm 5 mps 666 mmHg 79%
    10:00 +5°C° 0.2 mm 5 mps 666 mmHg 78%
    11:00 +4°C° 0.2 mm 6 mps 666 mmHg 77%
    12:00 +4°C° 0.2 mm 6 mps 667 mmHg 76%
    13:00 +4°C° 0.2 mm 6 mps 667 mmHg 77%
    14:00 +5°C° 0.2 mm 5 mps 667 mmHg 78%
    15:00 +3°C° 0.2 mm 5 mps 667 mmHg 79%
    16:00 +4°C° 0 mm 4 mps 667 mmHg 83%
    17:00 +3°C° 0 mm 3 mps 667 mmHg 86%
    18:00 +2°C° 0 mm 3 mps 667 mmHg 90%
    19:00 +3°C° 0.1 mm 2 mps 668 mmHg 90%
    20:00 +3°C° 0.1 mm 2 mps 668 mmHg 90%
    21:00 +3°C° 0.1 mm 2 mps 668 mmHg 90%
    22:00 +3°C° 0.1 mm 2 mps 668 mmHg 91%
    23:00 +2°C° 0.1 mm 2 mps 668 mmHg 92%

    Tomorrow, 22 January, Tuesday

    Time Temperature Precipitation Wind Pressure Humidity
    00:00 +2°C° 0.1 mm 2 mps 668 mmHg 93%
    01:00 +2°C° 0 mm 2 mps 668 mmHg 93%
    02:00 +2°C° 0 mm 2 mps 668 mmHg 93%
    03:00 +2°C° 0 mm 2 mps 668 mmHg 93%
    04:00 +2°C° 0 mm 2 mps 668 mmHg 93%
    05:00 +2°C° 0 mm 1 mps 668 mmHg 92%
    06:00 +2°C° 0 mm 1 mps 668 mmHg 92%
    07:00 +2°C° 0 mm 1 mps 668 mmHg 89%
    08:00 +3°C° 0 mm 1 mps 668 mmHg 85%
    09:00 +3°C° 0 mm 1 mps 668 mmHg 82%
    10:00 +4°C° 0 mm 1 mps 668 mmHg 75%
    11:00 +4°C° 0 mm 2 mps 668 mmHg 68%
    12:00 +5°C° 0 mm 2 mps 668 mmHg 61%
    13:00 +5°C° 0 mm 2 mps 667 mmHg 60%
    14:00 +4°C° 0 mm 3 mps 667 mmHg 59%
    15:00 +4°C° 0 mm 3 mps 666 mmHg 58%
    16:00 +3°C° 0 mm 3 mps 666 mmHg 63%
    17:00 +4°C° 0 mm 2 mps 666 mmHg 68%
    18:00 +3°C° 0 mm 2 mps 665 mmHg 74%
    19:00 +2°C° 0 mm 2 mps 665 mmHg 75%
    20:00 +2°C° 0 mm 2 mps 665 mmHg 77%
    21:00 +2°C° 0 mm 2 mps 665 mmHg 78%
    22:00 +1°C° 0 mm 2 mps 665 mmHg 79%
    23:00 +1°C° 0 mm 2 mps 664 mmHg 79%

    Day after tomorrow, 23 January, Wednesday

    Time Temperature Precipitation Wind Pressure Humidity
    00:00 -1°C° 0 mm 2 mps 664 mmHg 80%
    01:00 +1°C° 0.1 mm 2 mps 663 mmHg 81%
    02:00 +1°C° 0.1 mm 2 mps 663 mmHg 82%
    03:00 0°C° 0.1 mm 3 mps 662 mmHg 83%
    04:00 0°C° 0.1 mm 3 mps 662 mmHg 84%
    05:00 0°C° 0.1 mm 3 mps 661 mmHg 85%
    06:00 0°C° 0.1 mm 3 mps 661 mmHg 86%
    07:00 0°C° 0.7 mm 3 mps 661 mmHg 86%
    08:00 +1°C° 0.7 mm 3 mps 661 mmHg 85%
    09:00 0°C° 0.7 mm 4 mps 661 mmHg 85%
    10:00 +1°C° 0.1 mm 5 mps 661 mmHg 82%
    11:00 +1°C° 0.1 mm 6 mps 661 mmHg 79%
    12:00 +2°C° 0.1 mm 7 mps 661 mmHg 75%
    13:00 +2°C° 0.1 mm 7 mps 660 mmHg 75%
    14:00 +1°C° 0.1 mm 8 mps 660 mmHg 75%
    15:00 +1°C° 0.1 mm 9 mps 659 mmHg 76%
    16:00 0°C° 0.9 mm 9 mps 659 mmHg 80%
    17:00 0°C° 0.9 mm 9 mps 658 mmHg 85%
    18:00 0°C° 0.9 mm 10 mps 658 mmHg 90%
    19:00 0°C° 1.2 mm 8 mps 658 mmHg 91%
    20:00 +1°C° 1.2 mm 6 mps 657 mmHg 92%
    21:00 +1°C° 1.2 mm 4 mps 657 mmHg 94%
    22:00 +1°C° 1.1 mm 5 mps 657 mmHg 93%
    23:00 -1°C° 1.1 mm 6 mps 657 mmHg 92%

    24 January, Thursday

    Time Temperature Precipitation Wind Pressure Humidity
    00:00 -1°C° 1.1 mm 7 mps 657 mmHg 92%
    01:00 -2°C° 1.6 mm 7 mps 656 mmHg 92%
    02:00 -3°C° 1.6 mm 6 mps 656 mmHg 93%
    03:00 -4°C° 1.6 mm 5 mps 656 mmHg 94%
    04:00 -4°C° 1.1 mm 6 mps 656 mmHg 91%
    05:00 -6°C° 1.1 mm 7 mps 656 mmHg 89%
    06:00 -6°C° 1.1 mm 8 mps 656 mmHg 87%
    07:00 -7°C° 0.1 mm 10 mps 656 mmHg 86%
    08:00 -7°C° 0.1 mm 12 mps 656 mmHg 85%
    09:00 -8°C° 0.1 mm 14 mps 657 mmHg 85%
    10:00 -7°C° 0.3 mm 15 mps 657 mmHg 86%
    11:00 -7°C° 0.3 mm 16 mps 657 mmHg 87%
    12:00 -5°C° 0.3 mm 16 mps 657 mmHg 88%
    13:00 -5°C° 1.7 mm 15 mps 658 mmHg 89%
    14:00 -5°C° 1.7 mm 14 mps 658 mmHg 90%
    15:00 -5°C° 1.7 mm 13 mps 659 mmHg 92%
    16:00 -5°C° 2.2 mm 12 mps 659 mmHg 92%
    17:00 -4°C° 2.2 mm 10 mps 660 mmHg 93%
    18:00 -4°C° 2.2 mm 9 mps 661 mmHg 94%
    19:00 -4°C° 1.5 mm 8 mps 661 mmHg 94%
    20:00 -2°C° 1.5 mm 7 mps 662 mmHg 95%
    21:00 -2°C° 1.5 mm 6 mps 663 mmHg 96%
    22:00 -2°C° 0.4 mm 7 mps 663 mmHg 96%
    23:00 -2°C° 0.4 mm 8 mps 664 mmHg 97%

    25 January, Friday

    Time Temperature Precipitation Wind Pressure Humidity
    00:00 -3°C° 0.4 mm 9 mps 664 mmHg 97%
    01:00 -4°C° 0.1 mm 8 mps 665 mmHg 96%
    02:00 -3°C° 0.1 mm 7 mps 665 mmHg 96%
    03:00 -3°C° 0.1 mm 6 mps 665 mmHg 95%
    04:00 -4°C° 0.1 mm 6 mps 665 mmHg 95%
    05:00 -4°C° 0.1 mm 5 mps 665 mmHg 96%
    06:00 -3°C° 0.1 mm 4 mps 666 mmHg 96%
    07:00 -3°C° 0.2 mm 4 mps 666 mmHg 95%
    08:00 -2°C° 0.2 mm 5 mps 667 mmHg 95%
    09:00 -3°C° 0.2 mm 6 mps 667 mmHg 94%
    10:00 -3°C° 0 mm 6 mps 667 mmHg 94%
    11:00 -3°C° 0 mm 6 mps 667 mmHg 94%
    12:00 -2°C° 0 mm 7 mps 668 mmHg 94%
    13:00 -2°C° 0 mm 7 mps 668 mmHg 94%
    14:00 -2°C° 0 mm 6 mps 668 mmHg 93%
    15:00 -2°C° 0 mm 6 mps 668 mmHg 92%
    16:00 -1°C° 0.1 mm 5 mps 668 mmHg 94%
    17:00 -1°C° 0.1 mm 4 mps 668 mmHg 95%
    18:00 -1°C° 0.1 mm 3 mps 669 mmHg 97%
    19:00 0°C° 0.2 mm 3 mps 669 mmHg 97%
    20:00 0°C° 0.2 mm 3 mps 669 mmHg 97%
    21:00 0°C° 0.2 mm 3 mps 669 mmHg 97%
    22:00 0°C° 0 mm 3 mps 669 mmHg 97%
    23:00 0°C° 0 mm 3 mps 669 mmHg 98%

    26 January, Saturday

    Time Temperature Precipitation Wind Pressure Humidity
    00:00 -1°C° 0 mm 3 mps 669 mmHg 98%
    01:00 -1°C° 0 mm 3 mps 669 mmHg 98%
    02:00 -1°C° 0 mm 2 mps 669 mmHg 98%
    03:00 -1°C° 0 mm 2 mps 669 mmHg 98%
    04:00 -1°C° 0 mm 2 mps 669 mmHg 97%
    05:00 +1°C° 0 mm 2 mps 669 mmHg 97%
    06:00 0°C° 0 mm 3 mps 670 mmHg 97%
    07:00 0°C° 0 mm 3 mps 670 mmHg 96%
    08:00 +1°C° 0 mm 3 mps 670 mmHg 95%
    09:00 +1°C° 0 mm 3 mps 671 mmHg 94%
    10:00 +1°C° 0 mm 3 mps 671 mmHg 92%
    11:00 +2°C° 0 mm 3 mps 671 mmHg 90%
    12:00 +3°C° 0 mm 3 mps 671 mmHg 89%
    13:00 +4°C° 0 mm 2 mps 671 mmHg 88%
    14:00 +4°C° 0 mm 2 mps 670 mmHg 87%
    15:00 +4°C° 0 mm 2 mps 670 mmHg 87%
    16:00 +4°C° 0 mm 2 mps 670 mmHg 89%
    17:00 +4°C° 0 mm 1 mps 669 mmHg 91%
    18:00 +3°C° 0 mm 1 mps 669 mmHg 93%
    19:00 +3°C° 0 mm 1 mps 669 mmHg 91%
    20:00 +3°C° 0 mm 1 mps 669 mmHg 88%
    21:00 +3°C° 0 mm 1 mps 669 mmHg 86%
    22:00 +3°C° 0 mm 1 mps 668 mmHg 84%
    23:00 +2°C° 0 mm 2 mps 668 mmHg 81%
    Show more